DK8PN Weather Reports


time (UTC)temp
C
wind
direction
speed
KPH
gust
KPH
rain 1hr
cm
rain 24hr
cm
rain mn
cm
humidity
%
barometer
mb
20260504213116 14 165 0.0 0.0 0.00 0.00 0.00 79 1009.9
20260504211549 15 165 0.0 0.0 0.00 0.00 0.00 77 1010.2
20260504210050 15 165 0.0 0.0 0.00 0.00 0.00 76 1010.3
20260504204552 15 165 0.0 0.0 0.00 0.00 0.00 75 1010.5
20260504203059 16 242 0.0 0.0 0.00 0.00 0.00 69 1010.4
20260504201546 16 242 0.0 0.0 0.00 0.00 0.00 67 1010.6
20260504200050 16 245 0.0 0.0 0.00 0.00 0.00 65 1010.5
20260504194558 16 253 0.0 1.6 0.00 0.00 0.00 63 1010.4
20260504193043 16 273 0.0 0.0 0.00 0.00 0.00 62 1010.3
20260504191534 17 279 0.0 0.0 0.00 0.00 0.00 61 1010.3
20260504190033 17 279 0.0 0.0 0.00 0.00 0.00 61 1010.2
20260504184533 17 279 0.0 6.4 0.00 0.00 0.00 59 1010.2
20260504183032 17 296 3.2 11.3 0.00 0.00 0.00 58 1010.2
20260504181531 18 290 0.0 11.3 0.00 0.00 0.00 58 1010.0
20260504180030 18 290 1.6 16.1 0.00 0.00 0.00 56 1010.1
20260504174529 18 300 0.0 11.3 0.00 0.00 0.00 55 1009.8
20260504173036 19 274 0.0 8.0 0.00 0.00 0.00 54 1009.7
20260504171528 19 294 0.0 6.4 0.00 0.00 0.00 53 1009.4
20260504110118 21 272 0.0 14.5 0.00 0.00 0.00 46 1011.2
20260504081537 18 262 0.0 0.0 0.00 0.00 0.00 55 1012.6
20260504050011 9 262 0.0 0.0 0.00 0.00 0.00 88 1012.6
20260504044521 8 262 0.0 0.0 0.00 0.00 0.00 89 1012.6
20260504043006 8 262 0.0 0.0 0.00 0.00 0.00 88 1012.5
20260504041503 8 262 0.0 0.0 0.00 0.00 0.00 88 1012.4
20260504040002 9 262 0.0 0.0 0.00 0.00 0.00 89 1012.4
20260504034502 8 262 0.0 0.0 0.00 0.00 0.00 88 1012.4
20260504033115 9 262 0.0 0.0 0.00 0.00 0.00 89 1012.5
20260504031559 9 262 0.0 0.0 0.00 0.00 0.00 88 1012.6
20260504030057 9 262 0.0 0.0 0.00 0.00 0.00 88 1012.4
20260504024604 10 262 0.0 0.0 0.00 0.00 0.00 85 1012.5
20260504023052 10 262 0.0 0.0 0.00 0.00 0.00 84 1012.5
20260504021549 11 262 0.0 0.0 0.00 0.00 0.00 83 1012.5
20260504020046 11 262 0.0 0.0 0.00 0.00 0.00 82 1012.4
20260504014547 12 262 0.0 0.0 0.00 0.00 0.00 80 1012.4
20260504013048 12 262 0.0 0.0 0.00 0.00 0.00 80 1012.3
20260504011540 12 262 0.0 0.0 0.00 0.00 0.00 79 1012.2
20260504010048 12 262 0.0 0.0 0.00 0.00 0.00 76 1012.3
20260504004538 13 262 0.0 0.0 0.00 0.00 0.00 74 1012.3
20260504003038 13 262 0.0 0.0 0.00 0.00 0.00 73 1012.4
20260504001541 13 262 0.0 0.0 0.00 0.00 0.00 73 1012.5
20260504000039 12 262 0.0 0.0 0.00 0.00 0.00 76 1012.5
20260503234534 12 262 0.0 0.0 0.00 0.00 0.00 77 1012.7
20260503233030 12 262 0.0 0.0 0.00 0.00 0.00 75 1012.9
20260503231529 13 262 0.0 0.0 0.00 0.00 0.00 74 1012.9
20260503230028 13 262 0.0 0.0 0.00 0.00 0.00 73 1012.9
20260503224527 13 262 0.0 0.0 0.00 0.00 0.00 74 1013.1
20260503223026 13 262 0.0 0.0 0.00 0.00 0.00 72 1013.1
20260503221529 14 262 0.0 0.0 0.00 0.00 0.00 68 1013.0
20260503220018 14 262 0.0 0.0 0.00 0.00 0.00 66 1012.9
20260503214516 14 262 0.0 0.0 0.00 0.00 0.00 64 1012.8